[Date Prev][Date Next][Thread Prev][Thread Next] - [Date Index][Thread Index][Author Index]
2 Line ISS Keps 6-7
- Subject: [sarex] 2 Line ISS Keps 6-7
- From: "Dave Larsen PhD" <doc@xxxxxxxxxxx>
- Date: Fri, 7 Jun 2002 02:35:22 -0700
ISS
1 25544U 98067A 02158.16601852 .00030618 00000-0 36807-3 0 5367
2 25544 51.6364 103.2796 0006476 156.0687 38.5116 15.60560106202469
----
Via the sarex mailing list at AMSAT.ORG courtesy of AMSAT-NA.
To unsubscribe, send "unsubscribe sarex" to Majordomo@amsat.org
AMSAT Home